[[{"header":{"parameterUnit":"m.s-1","parameterCategory":2,"la1":30.2992,"la2":30.254,"lo1":-89.0895,"lo2":-89.0443,"dy":0.0025,"dx":0.0025,"nx":19,"ny":19,"refTime":"2026-03-14T21:00:00:Z","depth":"0","parameterNumber":2,"parameterNumberName":"U-component_of_CURRENTS"},"data":[0,0,0,-0.1417,-0.1418,-0.1462,-0.1462,-0.1461,-0.1461,0,0,0,0,0,0,0,0,0,0,0,-0.1396,-0.1396,-0.1417,-0.1418,-0.1462,-0.1462,-0.1461,-0.1461,0,0,0,0,0,0,0,0,0,0,0,-0.1396,-0.1396,-0.1396,-0.1419,-0.1462,-0.1462,-0.1461,-0.144,0,0,0,0,0,0,0,0,0,0,-0.1404,-0.1385,-0.1396,-0.1396,-0.1419,-0.1462,-0.1462,-0.1439,-0.1441,-0.1427,0,-0.1438,0,-0.1455,-0.146,-0.146,0,0,0,-0.141,-0.1383,-0.1409,-0.1396,-0.142,-0.1462,-0.144,-0.1441,-0.1443,-0.143,-0.1438,-0.1439,-0.1455,-0.146,-0.146,-0.148,-0.148,0,0,-0.1407,-0.1388,-0.1408,-0.141,-0.1435,-0.1439,-0.1441,-0.1443,-0.1437,-0.1439,-0.1439,-0.1455,-0.146,-0.146,-0.148,-0.148,0,0,0,-0.1406,-0.1386,-0.1412,-0.1409,-0.1425,-0.144,-0.1443,-0.1436,-0.1449,-0.144,-0.1455,-0.146,-0.146,-0.1479,-0.148,-0.1513,0,0,0,-0.1405,-0.1387,-0.1411,-0.1398,-0.1426,-0.1437,-0.1437,-0.1449,-0.145,-0.1455,-0.146,-0.146,-0.1479,-0.1479,-0.1511,-0.1522,0,0,0,-0.1393,-0.1385,-0.1395,-0.1398,-0.1423,-0.1438,-0.145,-0.145,-0.1459,-0.146,-0.146,-0.1479,-0.1479,-0.151,-0.152,-0.1523,0,0,0,-0.1365,-0.1392,-0.1394,-0.1432,-0.1423,-0.1478,-0.145,-0.1476,-0.1481,-0.146,-0.1479,-0.148,-0.151,-0.1519,-0.1522,-0.1436,-0.1434,0,0,-0.139,-0.1394,-0.1422,-0.1426,-0.1486,-0.1471,-0.1513,-0.1502,-0.1484,-0.1472,-0.1473,-0.1512,-0.152,-0.1523,-0.1475,-0.1472,0,0,0,-0.1425,-0.144,-0.146,-0.1493,-0.1528,-0.1542,-0.1539,-0.1527,-0.1519,-0.1492,-0.1516,-0.152,-0.1521,-0.1467,-0.1465,-0.1407,-0.1483,-0.1483,-0.1483,-0.1407,-0.145,-0.1492,-0.1541,-0.157,-0.1588,-0.1592,-0.1572,-0.1554,-0.1553,-0.1551,-0.1581,-0.1524,-0.1522,-0.1464,-0.1557,-0.1557,-0.1557,-0.1557,-0.1436,-0.1457,-0.1508,-0.1562,-0.159,-0.1615,-0.1628,-0.1614,-0.1604,-0.1584,-0.1583,-0.1509,-0.1521,-0.146,-0.1559,-0.1559,-0.1559,-0.1558,-0.1558,-0.1408,-0.1424,-0.1464,-0.1531,-0.1575,-0.1615,-0.1637,-0.1645,-0.1629,-0.1634,-0.1558,-0.1556,-0.1497,-0.1631,-0.1631,-0.1631,-0.1631,-0.1631,-0.1631,-0.1348,-0.1395,-0.1425,-0.1498,-0.1528,-0.1578,-0.1634,-0.1642,-0.1618,-0.1584,-0.1582,-0.1494,-0.1603,-0.1594,-0.1632,-0.1632,-0.1632,-0.1632,-0.1632,-0.129,-0.1317,-0.1357,-0.139,-0.1466,-0.143,-0.1548,-0.154,-0.157,-0.1533,-0.1437,-0.1547,-0.1523,-0.1523,-0.1512,-0.1527,-0.1527,-0.1527,-0.1527,-0.1225,-0.1254,-0.1276,-0.1307,-0.1345,-0.1356,-0.1258,-0.1294,-0.1338,-0.1318,-0.1364,-0.1323,-0.133,-0.1293,-0.1298,-0.1282,-0.1239,-0.1239,-0.1238,-0.116,-0.1194,-0.1164,-0.1226,-0.1266,-0.1216,-0.1004,-0.0901,-0.1068,-0.1225,-0.1305,-0.1317,-0.1258,-0.1273,-0.1215,-0.1227,-0.1201,0,0]},{"header":{"parameterUnit":"m.s-1","parameterCategory":2,"la1":30.2992,"la2":30.254,"lo1":-89.0895,"lo2":-89.0443,"dy":0.0025,"dx":0.0025,"nx":19,"ny":19,"refTime":"2026-03-14T21:00:00:Z","depth":"0","parameterNumber":3,"parameterNumberName":"V-component_of_CURRENTS"},"data":[0,0,0,0.002,0.0021,0.0064,0.0065,0.0148,0.0149,0,0,0,0,0,0,0,0,0,0,0,0.0004,0.0004,0.002,0.0021,0.0064,0.0065,0.0148,0.0149,0,0,0,0,0,0,0,0,0,0,0,0.0004,0.0004,0.0004,0.0021,0.0064,0.0065,0.0148,0.0111,0,0,0,0,0,0,0,0,0,0,0.0066,0.0039,0.0004,0.0004,0.0021,0.0064,0.0065,0.0109,0.0113,0.0133,0,0.0132,0,0.0139,0.0154,0.0154,0,0,0,0.0031,0.0035,0.005,0.0004,0.0021,0.0064,0.0048,0.0111,0.0116,0.0139,0.0133,0.0136,0.0141,0.0155,0.0155,0.0208,0.0208,0,0,0.0028,0.0013,0.0046,0.0052,0.0023,0.0046,0.0049,0.0114,0.0114,0.0134,0.0138,0.0142,0.0155,0.0156,0.0208,0.0208,0,0,0,0.0015,0.0011,0.0024,0.0049,0.0053,0.0047,0.005,0.0111,0.0116,0.0139,0.0143,0.0156,0.0157,0.0208,0.0208,0.0157,0,0,0,0.0014,0.0003,0.0023,0.0014,0.0051,0.0077,0.0046,0.0111,0.0119,0.0143,0.0156,0.0157,0.0208,0.0208,0.0158,0.0129,0,0,0,0.0004,0.0002,0.0004,0.0013,0.0028,0.0076,0.0085,0.0113,0.0121,0.0155,0.0158,0.0208,0.0208,0.0159,0.0131,0.0168,0,0,0,-0.0009,-0.0033,0.0004,-0.0017,0.0028,0.0041,0.0085,0.0103,0.0126,0.0156,0.0208,0.0208,0.016,0.0133,0.0169,0.0255,0.0259,0,0,-0.0052,-0.0039,-0.005,-0.0016,-0.0028,0.0036,0.0043,0.0093,0.0136,0.019,0.0192,0.0157,0.0131,0.0168,0.0253,0.0257,0,0,0,-0.0071,-0.0084,-0.008,-0.0074,-0.0041,-0.0005,0.0049,0.0083,0.0133,0.0148,0.0171,0.0156,0.0181,0.0236,0.0239,0.0417,0.0207,0.0207,0.0207,-0.015,-0.0129,-0.0152,-0.0124,-0.0102,-0.0031,0.0005,0.0067,0.0107,0.0123,0.0125,0.0129,0.0185,0.0189,0.0371,0.0141,0.0141,0.0141,0.0141,-0.0227,-0.0244,-0.0205,-0.0222,-0.016,-0.0135,-0.0034,0.001,0.0078,0.0096,0.0124,0.019,0.0189,0.0383,0.0138,0.0138,0.0138,0.0139,0.0139,-0.0287,-0.0295,-0.0293,-0.0297,-0.027,-0.0195,-0.0135,-0.0058,0.0029,0.0049,0.0163,0.0165,0.0331,0.008,0.008,0.008,0.008,0.008,0.008,-0.0351,-0.035,-0.0371,-0.0372,-0.0363,-0.0321,-0.0192,-0.0112,0.004,0.0118,0.012,0.0365,0.0111,0.0108,0.0081,0.008,0.008,0.008,0.008,-0.0433,-0.0419,-0.0449,-0.0452,-0.0426,-0.037,-0.0267,-0.0033,0.0066,0.0164,0.0451,0.0184,0.022,0.0219,0.022,0.0223,0.0223,0.0223,0.0223,-0.048,-0.048,-0.0482,-0.0471,-0.0455,-0.0376,-0.0171,0.0083,0.0418,0.0605,0.0609,0.0658,0.0644,0.0708,0.0696,0.0708,0.0835,0.0836,0.0836,-0.0526,-0.0514,-0.0505,-0.0471,-0.0444,-0.0351,-0.0105,0.0311,0.0779,0.0877,0.0841,0.0815,0.0899,0.0863,0.097,0.0939,0.0961,0,0]}],[{"header":{"parameterUnit":"m.s-1","parameterCategory":2,"la1":30.2992,"la2":30.254,"lo1":-89.0895,"lo2":-89.0443,"dy":0.0025,"dx":0.0025,"nx":19,"ny":19,"refTime":"2026-03-14T21:00:00:Z","depth":"2","parameterNumber":2,"parameterNumberName":"U-component_of_CURRENTS"},"data":[0,0,0,-0.1359,-0.1361,-0.1404,-0.1404,-0.1405,-0.1405,0,0,0,0,0,0,0,0,0,0,0,-0.1339,-0.1339,-0.1359,-0.1361,-0.1404,-0.1404,-0.1405,-0.1405,0,0,0,0,0,0,0,0,0,0,0,-0.1338,-0.1339,-0.1339,-0.1361,-0.1404,-0.1404,-0.1405,-0.1384,0,0,0,0,0,0,0,0,0,0,-0.1348,-0.133,-0.1339,-0.1339,-0.1361,-0.1404,-0.1404,-0.1383,-0.1385,-0.1372,0,-0.1383,0,-0.1399,-0.1404,-0.1404,0,0,0,-0.1353,-0.1329,-0.1352,-0.1339,-0.1362,-0.1404,-0.1382,-0.1385,-0.1387,-0.1374,-0.1383,-0.1384,-0.1399,-0.1404,-0.1404,-0.1425,-0.1426,0,0,-0.1351,-0.1333,-0.1351,-0.1354,-0.1377,-0.1381,-0.1384,-0.1387,-0.1382,-0.1383,-0.1384,-0.1399,-0.1404,-0.1404,-0.1425,-0.1425,0,0,0,-0.1349,-0.1331,-0.1356,-0.1353,-0.1368,-0.1383,-0.1386,-0.1381,-0.1393,-0.1384,-0.1399,-0.1404,-0.1404,-0.1425,-0.1425,-0.146,0,0,0,-0.1347,-0.1331,-0.1354,-0.1343,-0.1369,-0.1381,-0.138,-0.1393,-0.1394,-0.1399,-0.1404,-0.1404,-0.1424,-0.1425,-0.1459,-0.147,0,0,0,-0.1336,-0.133,-0.1339,-0.1342,-0.1367,-0.1382,-0.1393,-0.1394,-0.1403,-0.1404,-0.1404,-0.1424,-0.1425,-0.1457,-0.1467,-0.1471,0,0,0,-0.1311,-0.1336,-0.1339,-0.1375,-0.1366,-0.1419,-0.1393,-0.142,-0.1425,-0.1404,-0.1424,-0.1425,-0.1457,-0.1466,-0.147,-0.1381,-0.138,0,0,-0.1334,-0.1338,-0.1364,-0.1369,-0.1426,-0.1412,-0.1454,-0.1445,-0.1428,-0.1417,-0.1418,-0.1459,-0.1467,-0.1471,-0.1421,-0.1418,0,0,0,-0.1367,-0.1381,-0.1401,-0.1432,-0.1465,-0.1482,-0.148,-0.147,-0.1465,-0.1437,-0.1463,-0.1467,-0.1468,-0.1413,-0.1411,-0.1428,-0.1428,-0.1428,-0.1428,-0.1353,-0.1393,-0.1433,-0.1479,-0.1508,-0.1527,-0.1533,-0.1516,-0.1498,-0.15,-0.1499,-0.153,-0.1472,-0.1469,-0.1505,-0.1505,-0.1505,-0.1505,-0.1505,-0.1381,-0.1401,-0.145,-0.1501,-0.153,-0.1556,-0.1571,-0.156,-0.1552,-0.1533,-0.1533,-0.1456,-0.1469,-0.1508,-0.1507,-0.1507,-0.1507,-0.1507,-0.1506,-0.1356,-0.1371,-0.141,-0.1474,-0.152,-0.156,-0.1586,-0.1594,-0.1579,-0.1585,-0.1508,-0.1505,-0.1541,-0.1583,-0.1583,-0.1583,-0.1583,-0.1583,-0.1583,-0.13,-0.1345,-0.1374,-0.1446,-0.1477,-0.1529,-0.1587,-0.1596,-0.157,-0.1534,-0.1533,-0.1556,-0.1553,-0.1545,-0.1584,-0.1584,-0.1584,-0.1584,-0.1584,-0.1244,-0.127,-0.1309,-0.1342,-0.1422,-0.1394,-0.151,-0.1501,-0.1527,-0.1488,-0.1496,-0.1498,-0.1473,-0.1472,-0.1461,-0.1477,-0.1477,-0.1477,-0.1477,-0.1181,-0.1208,-0.1232,-0.1269,-0.1311,-0.1329,-0.125,-0.1268,-0.1329,-0.132,-0.1327,-0.1287,-0.1295,-0.1258,-0.1263,-0.1247,-0.1207,-0.1206,-0.1206,-0.1116,-0.1149,-0.1127,-0.1195,-0.1242,-0.1203,-0.1025,-0.0928,-0.101,-0.1196,-0.1288,-0.1457,-0.1417,-0.1422,-0.1378,-0.1381,-0.136,0,0]},{"header":{"parameterUnit":"m.s-1","parameterCategory":2,"la1":30.2992,"la2":30.254,"lo1":-89.0895,"lo2":-89.0443,"dy":0.0025,"dx":0.0025,"nx":19,"ny":19,"refTime":"2026-03-14T21:00:00:Z","depth":"2","parameterNumber":3,"parameterNumberName":"V-component_of_CURRENTS"},"data":[0,0,0,-0.0089,-0.0088,-0.0044,-0.0044,0.0038,0.0038,0,0,0,0,0,0,0,0,0,0,0,-0.0104,-0.0104,-0.0089,-0.0088,-0.0044,-0.0044,0.0038,0.0038,0,0,0,0,0,0,0,0,0,0,0,-0.0104,-0.0104,-0.0104,-0.0088,-0.0045,-0.0044,0.0037,0.0,0,0,0,0,0,0,0,0,0,0,-0.0044,-0.007,-0.0104,-0.0104,-0.0088,-0.0045,-0.0044,-0.0002,0.0003,0.0023,0,0.0022,0,0.0029,0.0044,0.0044,0,0,0,-0.0078,-0.0074,-0.0059,-0.0104,-0.0087,-0.0045,-0.0061,0.0001,0.0006,0.0028,0.0023,0.0026,0.003,0.0044,0.0045,0.0101,0.0101,0,0,-0.0081,-0.0095,-0.0063,-0.0057,-0.0084,-0.0063,-0.006,0.0004,0.0004,0.0024,0.0028,0.0032,0.0045,0.0045,0.01,0.0101,0,0,0,-0.0094,-0.0097,-0.0084,-0.006,-0.0056,-0.0062,-0.0059,0.0001,0.0006,0.0029,0.0033,0.0045,0.0046,0.01,0.0101,0.0055,0,0,0,-0.0095,-0.0105,-0.0086,-0.0094,-0.0058,-0.0032,-0.0062,0.0001,0.0009,0.0032,0.0045,0.0047,0.01,0.01,0.0056,0.0028,0,0,0,-0.0105,-0.0106,-0.0103,-0.0095,-0.008,-0.0033,-0.0024,0.0003,0.0011,0.0044,0.0047,0.01,0.01,0.0057,0.0031,0.0065,0,0,0,-0.0117,-0.014,-0.0104,-0.0123,-0.008,-0.0066,-0.0024,-0.0006,0.0017,0.0046,0.01,0.0101,0.0057,0.0032,0.0066,0.0133,0.0135,0,0,-0.0158,-0.0145,-0.0155,-0.0123,-0.0133,-0.0071,-0.0062,-0.0013,0.0028,0.0083,0.0084,0.0056,0.0031,0.0066,0.0137,0.0139,0,0,0,-0.0176,-0.0188,-0.0183,-0.0177,-0.0145,-0.0107,-0.0055,-0.002,0.0031,0.0041,0.007,0.0056,0.008,0.0121,0.0123,0.0101,0.0101,0.0101,0.0101,-0.025,-0.023,-0.0252,-0.0223,-0.0201,-0.0129,-0.0091,-0.0029,0.0008,0.0027,0.003,0.0037,0.008,0.0083,0.0047,0.0047,0.0047,0.0047,0.0047,-0.0325,-0.0342,-0.0301,-0.0316,-0.0253,-0.0226,-0.0123,-0.008,-0.0009,0.0008,0.0034,0.0083,0.0083,0.0043,0.0044,0.0044,0.0045,0.0045,0.0045,-0.0383,-0.0391,-0.0388,-0.039,-0.036,-0.0283,-0.0224,-0.0142,-0.0054,-0.0034,0.0062,0.0063,0.0019,-0.0005,-0.0005,-0.0005,-0.0005,-0.0005,-0.0005,-0.0447,-0.0445,-0.047,-0.0467,-0.046,-0.0415,-0.0281,-0.0201,-0.0055,0.002,0.0022,0.0021,0.0022,0.0018,-0.0004,-0.0005,-0.0005,-0.0005,-0.0005,-0.0531,-0.0519,-0.0557,-0.0564,-0.0541,-0.0502,-0.038,-0.0151,-0.0046,0.0046,0.0078,0.0075,0.0106,0.0106,0.0105,0.0107,0.0107,0.0107,0.0107,-0.0581,-0.0582,-0.06,-0.0602,-0.0596,-0.0527,-0.037,-0.015,0.0055,0.0133,0.0131,0.014,0.0136,0.0169,0.0167,0.0167,0.0185,0.0185,0.0185,-0.0632,-0.0627,-0.063,-0.0609,-0.06,-0.0535,-0.0376,-0.0132,0.0114,0.0183,0.0092,0.0122,0.0133,0.0128,0.0177,0.0175,0.0175,0,0]}],[{"header":{"parameterUnit":"m.s-1","parameterCategory":2,"la1":30.2992,"la2":30.254,"lo1":-89.0895,"lo2":-89.0443,"dy":0.0025,"dx":0.0025,"nx":19,"ny":19,"refTime":"2026-03-14T21:00:00:Z","depth":"4","parameterNumber":2,"parameterNumberName":"U-component_of_CURRENTS"},"data":[0,0,0,-0.1018,-0.102,-0.1112,-0.1112,-0.1163,-0.1164,0,0,0,0,0,0,0,0,0,0,0,-0.0988,-0.0988,-0.1017,-0.102,-0.1112,-0.1112,-0.1163,-0.1164,0,0,0,0,0,0,0,0,0,0,0,-0.0987,-0.0988,-0.0989,-0.102,-0.1112,-0.1112,-0.1163,-0.111,0,0,0,0,0,0,0,0,0,0,-0.1029,-0.1011,-0.0988,-0.0989,-0.1021,-0.1112,-0.1112,-0.1108,-0.1114,-0.1103,0,-0.1123,0,-0.1143,-0.1166,-0.1166,0,0,0,-0.102,-0.1007,-0.1032,-0.0989,-0.1022,-0.1112,-0.107,-0.1112,-0.1117,-0.1109,-0.1124,-0.1126,-0.1143,-0.1166,-0.1166,-0.1222,-0.1222,0,0,-0.1015,-0.1003,-0.1028,-0.1035,-0.1052,-0.1067,-0.1073,-0.1116,-0.1123,-0.1124,-0.1128,-0.1144,-0.1166,-0.1166,-0.1222,-0.1222,0,0,0,-0.1,-0.0999,-0.1024,-0.1033,-0.1054,-0.107,-0.1077,-0.1121,-0.113,-0.1129,-0.1145,-0.1166,-0.1166,-0.1221,-0.1222,-0.1259,0,0,0,-0.0997,-0.0991,-0.1022,-0.1015,-0.1054,-0.1098,-0.1081,-0.1127,-0.1133,-0.1145,-0.1166,-0.1167,-0.1221,-0.1222,-0.1257,-0.1268,0,0,0,-0.0982,-0.0989,-0.1002,-0.1014,-0.1054,-0.1098,-0.111,-0.1129,-0.1142,-0.1166,-0.1167,-0.122,-0.1221,-0.1255,-0.1265,-0.1275,0,0,0,-0.0963,-0.099,-0.1002,-0.1042,-0.1053,-0.1119,-0.111,-0.116,-0.1185,-0.1166,-0.1221,-0.1222,-0.1255,-0.1263,-0.1274,-0.1124,0,0,0,-0.0984,-0.0992,-0.1017,-0.103,-0.1092,-0.1105,-0.1168,-0.1195,-0.1192,-0.1201,-0.1203,-0.1258,-0.1265,-0.1275,-0.1182,0,0,0,0,-0.1015,-0.1033,-0.1055,-0.1096,-0.1139,-0.1183,-0.1213,-0.1222,-0.125,-0.1212,-0.1267,-0.127,-0.1275,-0.1184,-0.1226,-0.1226,-0.1226,-0.1226,-0.1226,-0.1013,-0.1048,-0.1094,-0.1143,-0.1187,-0.1241,-0.1271,-0.1286,-0.1282,-0.1301,-0.1307,-0.135,-0.1256,-0.1318,-0.1318,-0.1318,-0.1318,-0.1318,-0.1319,-0.1035,-0.1054,-0.1117,-0.1175,-0.1228,-0.1282,-0.1329,-0.1337,-0.1362,-0.1349,-0.1352,-0.1239,-0.1322,-0.1322,-0.1321,-0.1321,-0.132,-0.132,-0.132,-0.1011,-0.1024,-0.1078,-0.116,-0.1239,-0.1307,-0.1358,-0.1391,-0.1394,-0.1407,-0.1301,-0.1372,-0.1359,-0.1411,-0.1411,-0.1411,-0.1412,-0.1412,-0.1412,-0.0948,-0.1003,-0.1033,-0.1144,-0.1189,-0.1279,-0.1376,-0.1389,-0.1411,-0.1324,-0.1419,-0.1381,-0.1378,-0.1365,-0.1413,-0.1413,-0.1413,-0.1413,-0.1413,-0.0885,-0.0916,-0.0933,-0.0977,-0.1087,-0.1162,-0.1313,-0.1323,-0.1319,-0.1264,-0.1271,-0.1278,-0.1246,-0.1246,-0.1227,-0.1237,-0.1235,-0.1233,0,-0.0814,-0.0845,-0.0802,-0.0811,-0.0879,-0.1045,-0.1076,-0.1139,-0.1144,-0.1092,-0.1261,-0.1265,-0.1269,-0.123,-0.1227,-0.1202,0,0,0,-0.075,-0.0739,-0.0659,-0.0676,-0.074,-0.0882,-0.1065,-0.1029,-0.1179,-0.1147,-0.1189,-0.1201,-0.1356,-0.1419,-0.1385,-0.1382,-0.1358,0,0]},{"header":{"parameterUnit":"m.s-1","parameterCategory":2,"la1":30.2992,"la2":30.254,"lo1":-89.0895,"lo2":-89.0443,"dy":0.0025,"dx":0.0025,"nx":19,"ny":19,"refTime":"2026-03-14T21:00:00:Z","depth":"4","parameterNumber":3,"parameterNumberName":"V-component_of_CURRENTS"},"data":[0,0,0,-0.017,-0.0169,-0.0139,-0.0139,-0.0061,-0.0061,0,0,0,0,0,0,0,0,0,0,0,-0.018,-0.018,-0.017,-0.0169,-0.0139,-0.0139,-0.0061,-0.0061,0,0,0,0,0,0,0,0,0,0,0,-0.018,-0.018,-0.018,-0.0169,-0.0139,-0.0139,-0.0062,-0.0092,0,0,0,0,0,0,0,0,0,0,-0.0125,-0.0148,-0.018,-0.018,-0.0169,-0.0139,-0.0139,-0.0094,-0.009,-0.0067,0,-0.0069,0,-0.0066,-0.0055,-0.0055,0,0,0,-0.016,-0.0152,-0.014,-0.018,-0.0169,-0.0139,-0.015,-0.0092,-0.0088,-0.0062,-0.0068,-0.0066,-0.0065,-0.0055,-0.0054,0.0015,0.0015,0,0,-0.0162,-0.0174,-0.0144,-0.0138,-0.0169,-0.0151,-0.0149,-0.009,-0.0089,-0.0068,-0.0064,-0.0063,-0.0054,-0.0054,0.0015,0.0015,0,0,0,-0.0173,-0.0175,-0.0166,-0.0141,-0.014,-0.015,-0.0148,-0.0092,-0.0089,-0.0063,-0.0062,-0.0054,-0.0053,0.0015,0.0015,-0.0018,0,0,0,-0.0173,-0.0182,-0.0167,-0.0174,-0.0142,-0.0122,-0.0152,-0.0093,-0.0086,-0.0063,-0.0054,-0.0052,0.0015,0.0015,-0.0018,-0.0041,0,0,0,-0.018,-0.0183,-0.0181,-0.0174,-0.0165,-0.0124,-0.0117,-0.0091,-0.0086,-0.0055,-0.0052,0.0014,0.0015,-0.0017,-0.004,-0.0009,0,0,0,-0.0189,-0.0205,-0.0182,-0.0194,-0.0166,-0.0149,-0.0117,-0.01,-0.0078,-0.0053,0.0015,0.0015,-0.0017,-0.0039,-0.0009,-0.0049,0,0,0,-0.0217,-0.0209,-0.0215,-0.0193,-0.0196,-0.0152,-0.0136,-0.0095,-0.006,-0.0001,0.0,-0.0018,-0.004,-0.0009,-0.0023,0,0,0,0,-0.0228,-0.0236,-0.0232,-0.0226,-0.02,-0.0168,-0.0125,-0.0093,-0.0041,-0.0046,0.0,-0.0012,0.0008,-0.0014,0.0017,0.0017,0.0017,0.0017,0.0017,-0.0283,-0.0265,-0.0279,-0.0255,-0.0234,-0.0174,-0.0138,-0.0081,-0.0051,-0.0029,-0.0026,-0.0009,-0.0033,-0.0004,-0.0005,-0.0005,-0.0005,-0.0005,-0.0005,-0.0336,-0.0347,-0.0315,-0.0325,-0.0272,-0.0246,-0.0148,-0.0111,-0.0042,-0.0031,-0.0009,-0.0032,-0.0008,-0.0007,-0.0007,-0.0007,-0.0006,-0.0006,-0.0006,-0.038,-0.0385,-0.0386,-0.0392,-0.0365,-0.0297,-0.0243,-0.0162,-0.0078,-0.0057,-0.0045,-0.0017,-0.0028,-0.0035,-0.0035,-0.0035,-0.0035,-0.0035,-0.0035,-0.0429,-0.0429,-0.047,-0.0463,-0.0473,-0.043,-0.0301,-0.0231,-0.0126,-0.0085,-0.0061,-0.0019,-0.0018,-0.0027,-0.0035,-0.0035,-0.0035,-0.0035,-0.0035,-0.0489,-0.0495,-0.0559,-0.0588,-0.0608,-0.0567,-0.0433,-0.0247,-0.0173,-0.0103,-0.0079,-0.0077,-0.0061,-0.0059,-0.007,-0.009,-0.0091,-0.0091,0,-0.0535,-0.054,-0.0647,-0.072,-0.0743,-0.0658,-0.0522,-0.0387,-0.0239,-0.0258,-0.0222,-0.0206,-0.02,-0.0196,-0.0194,-0.0215,0,0,0,-0.0579,-0.0603,-0.0697,-0.0776,-0.082,-0.0643,-0.0487,-0.0424,-0.0257,-0.0147,-0.0104,-0.0101,-0.009,-0.0034,-0.0004,-0.0003,-0.0017,0,0]}]]